EW3673 Weather Reports


Display with metric or nautical units.
time (UTC)temp
F
wind
direction
speed
MPH
gust
MPH
rain 1hr
in
rain 24hr
in
rain mn
in
humidity
%
barometer
mb
20200401091310 55 95 0.0 0.0 0.00 0.00 0.00 48 1007.9
20200401090323 56 95 0.0 0.0 0.00 0.00 0.00 46 1007.8
20200401085251 56 96 0.0 0.0 0.00 0.00 0.00 47 1008.0
20200401084253 56 96 0.0 0.0 0.00 0.00 0.00 48 1008.3
20200401083235 56 96 0.0 0.0 0.00 0.00 0.00 46 1008.4
20200401082226 56 96 0.0 0.0 0.00 0.00 0.00 47 1008.5
20200401081247 56 96 0.0 0.0 0.00 0.00 0.00 47 1008.6
20200401080309 56 96 0.0 0.0 0.00 0.00 0.00 48 1008.9
20200401075305 56 96 0.0 0.0 0.00 0.00 0.00 48 1008.9
20200401074310 56 100 0.0 0.0 0.00 0.00 0.00 47 1009.0
20200401073306 56 108 0.0 0.0 0.00 0.00 0.00 47 1009.1
20200401072236 56 108 0.0 0.0 0.00 0.00 0.00 48 1009.1
20200401071215 56 350 0.0 0.0 0.00 0.00 0.00 46 1009.3
20200401070207 56 348 0.0 0.0 0.00 0.00 0.00 47 1009.3
20200401065139 56 340 0.0 0.0 0.00 0.00 0.00 48 1009.4
20200401064111 56 324 0.0 0.0 0.00 0.00 0.00 49 1009.5
20200401063117 56 324 0.0 0.0 0.00 0.00 0.00 51 1009.6
20200401062142 57 324 0.0 0.0 0.00 0.00 0.00 48 1009.7
20200401061113 58 324 0.0 0.0 0.00 0.00 0.00 48 1010.0
20200401060121 58 324 0.0 0.0 0.00 0.00 0.00 45 1010.1
20200401055131 59 324 0.0 0.0 0.00 0.00 0.00 43 1010.3
20200401054125 59 324 0.0 0.0 0.00 0.00 0.00 44 1010.3
20200401053127 59 324 0.0 0.0 0.00 0.00 0.00 39 1010.3
20200401052054 58 324 0.0 0.0 0.00 0.00 0.00 43 1010.4
20200401051105 58 324 0.0 0.0 0.00 0.00 0.00 47 1010.3
20200401050038 59 324 0.0 0.0 0.00 0.00 0.00 45 1010.5
20200401045003 59 324 0.0 0.0 0.00 0.00 0.00 44 1010.4
20200401044016 60 324 0.0 0.0 0.00 0.00 0.00 40 1010.3
20200401043040 61 324 0.0 0.0 0.00 0.00 0.00 41 1010.5
20200401042009 62 324 0.0 0.0 0.00 0.00 0.00 37 1010.6
20200401040954 62 324 0.0 0.0 0.00 0.00 0.00 36 1010.4
20200401035946 62 324 0.0 0.0 0.00 0.00 0.00 36 1010.4
20200401034918 63 324 0.0 0.0 0.00 0.00 0.00 38 1010.2
20200401033910 63 324 0.0 0.0 0.00 0.00 0.00 35 1010.1
20200401032925 64 324 0.0 0.0 0.00 0.00 0.00 34 1010.1
20200401031931 65 324 0.0 0.0 0.00 0.00 0.00 33 1010.0
20200401030954 65 324 0.0 0.0 0.00 0.00 0.00 32 1010.1
20200401025957 66 324 0.0 0.0 0.00 0.00 0.00 34 1009.9
20200401024959 66 324 0.0 0.0 0.00 0.00 0.00 31 1009.8
20200401023938 67 317 0.0 0.0 0.00 0.00 0.00 29 1009.7
20200401022907 68 318 0.0 3.0 0.00 0.00 0.00 28 1009.6
20200401021904 68 302 0.0 0.0 0.00 0.00 0.00 26 1009.4
20200401020918 69 303 0.0 3.0 0.00 0.00 0.00 25 1009.4
20200401015930 69 304 0.0 0.0 0.00 0.00 0.00 24 1009.4
20200401014902 69 309 0.0 6.0 0.00 0.00 0.00 23 1009.4
20200401013915 70 339 0.0 0.0 0.00 0.00 0.00 21 1009.2
20200401012858 71 340 0.0 0.0 0.00 0.00 0.00 21 1009.2
20200401011826 71 342 0.0 0.0 0.00 0.00 0.00 20 1009.1
20200401010753 72 332 0.0 3.0 0.00 0.00 0.00 19 1009.2
20200401005745 73 334 0.0 2.0 0.00 0.00 0.00 18 1009.3
20200401004731 73 323 0.0 0.0 0.00 0.00 0.00 18 1009.5
20200401003729 74 346 0.0 1.0 0.00 0.00 0.00 17 1009.4
20200401002720 74 345 0.0 6.0 0.00 0.00 0.00 17 1009.4
20200401001711 75 348 0.0 7.0 0.00 0.00 0.00 17 1009.6
20200401000709 75 324 2.0 0.0 0.00 0.00 0.00 16 1009.5
20200331235639 76 309 0.0 8.0 0.00 0.00 0.00 15 1009.5
20200331234659 76 287 0.0 2.0 0.00 0.00 0.00 15 1009.5
20200331233707 77 286 2.0 12.0 0.00 0.00 0.00 14 1009.6
20200331232647 78 330 3.0 12.0 0.00 0.00 0.00 14 1009.6
20200331231638 79 310 4.0 10.0 0.00 0.00 0.00 14 1009.7
20200331230654 79 249 0.0 9.0 0.00 0.00 0.00 14 1009.7
20200331225700 78 293 1.0 11.0 0.00 0.00 0.00 14 1009.7
20200331224659 79 286 2.0 11.0 0.00 0.00 0.00 14 1009.6
20200331223716 79 312 0.0 6.0 0.00 0.00 0.00 14 1009.7
20200331222653 80 308 1.0 7.0 0.00 0.00 0.00 13 1009.7
20200331221622 81 273 0.0 7.0 0.00 0.00 0.00 13 1009.7
20200331220612 81 46 0.0 0.0 0.00 0.00 0.00 17 1009.8
20200331215603 81 46 0.0 0.0 0.00 0.00 0.00 13 1009.8
20200331214624 82 44 0.0 1.0 0.00 0.00 0.00 16 1010.0
20200331213555 82 27 0.0 0.0 0.00 0.00 0.00 16 1010.1
20200331212556 83 65 0.0 3.0 0.00 0.00 0.00 14 1010.4
20200331211601 85 73 0.0 0.0 0.00 0.00 0.00 16 1010.5
20200331210546 86 25 0.0 3.0 0.00 0.00 0.00 14 1010.9
20200331205541 83 25 0.0 0.0 0.00 0.00 0.00 17 1010.9
20200331204555 84 54 0.0 3.0 0.00 0.00 0.00 15 1011.0
20200331203523 83 63 0.0 0.0 0.00 0.00 0.00 15 1011.1
20200331202526 83 136 1.0 8.0 0.00 0.00 0.00 13 1011.3
20200331201508 83 56 0.0 0.0 0.00 0.00 0.00 15 1011.5
20200331200443 80 89 0.0 7.0 0.00 0.00 0.00 15 1011.8
20200331195504 81 126 1.0 6.0 0.00 0.00 0.00 15 1012.1
20200331194527 81 111 0.0 2.0 0.00 0.00 0.00 17 1012.4
20200331193532 80 88 0.0 0.0 0.00 0.00 0.00 16 1012.5
20200331192502 79 132 0.0 7.0 0.00 0.00 0.00 18 1012.8
20200331191517 78 3 1.0 7.0 0.00 0.00 0.00 17 1012.9
20200331190527 77 71 0.0 7.0 0.00 0.00 0.00 17 1013.2
20200331185520 77 150 0.0 8.0 0.00 0.00 0.00 18 1013.5
20200331184515 76 113 1.0 8.0 0.00 0.00 0.00 19 1013.7
20200331183509 75 163 1.0 8.0 0.00 0.00 0.00 18 1014.0
20200331182447 74 81 0.0 7.0 0.00 0.00 0.00 18 1014.2
20200331181510 73 106 0.0 4.0 0.00 0.00 0.00 18 1014.4
20200331180455 72 136 1.0 10.0 0.00 0.00 0.00 18 1014.6
20200331175424 72 125 1.0 6.0 0.00 0.00 0.00 19 1014.7
20200331174350 72 71 0.0 6.0 0.00 0.00 0.00 20 1015.0
20200331173323 71 154 0.0 8.0 0.00 0.00 0.00 21 1015.2
20200331172316 70 64 1.0 8.0 0.00 0.00 0.00 21 1015.5
20200331171250 70 144 0.0 4.0 0.00 0.00 0.00 22 1015.7
20200331170227 69 82 0.0 5.0 0.00 0.00 0.00 22 1015.8
20200331165232 68 152 0.0 5.0 0.00 0.00 0.00 23 1015.9
20200331164203 68 9 0.0 5.0 0.00 0.00 0.00 24 1016.0
20200331163209 66 133 0.0 7.0 0.00 0.00 0.00 26 1016.1
20200331162139 64 106 0.0 10.0 0.00 0.00 0.00 30 1016.1
20200331161131 62 126 1.0 10.0 0.00 0.00 0.00 30 1016.1
20200331160123 60 163 1.0 10.0 0.00 0.00 0.00 37 1016.3
20200331155115 58 139 1.0 10.0 0.00 0.00 0.00 37 1016.2
20200331154124 58 147 1.0 9.0 0.00 0.00 0.00 38 1016.3
20200331153118 56 160 2.0 9.0 0.00 0.00 0.00 40 1016.2
20200331152139 54 141 1.0 8.0 0.00 0.00 0.00 44 1016.4
20200331151134 53 155 0.0 4.0 0.00 0.00 0.00 44 1016.5
20200331150101 52 155 0.0 4.0 0.00 0.00 0.00 45 1016.7
20200331145056 51 256 0.0 0.0 0.00 0.00 0.00 47 1016.8
20200331144105 49 102 0.0 0.0 0.00 0.00 0.00 49 1016.8
20200331143045 49 113 0.0 0.0 0.00 0.00 0.00 48 1016.9
20200331142033 49 91 0.0 0.0 0.00 0.00 0.00 49 1016.8
20200331141014 48 75 0.0 0.0 0.00 0.00 0.00 50 1016.9
20200331135953 47 104 0.0 0.0 0.00 0.00 0.00 51 1016.9
20200331134934 46 72 0.0 1.0 0.00 0.00 0.00 52 1016.8
20200331133944 46 130 0.0 1.0 0.00 0.00 0.00 53 1016.7
20200331132943 46 85 0.0 0.0 0.00 0.00 0.00 52 1016.7
20200331131908 46 74 0.0 3.0 0.00 0.00 0.00 51 1016.4
20200331130923 47 83 0.0 2.0 0.00 0.00 0.00 49 1016.5
20200331125933 46 174 0.0 1.0 0.00 0.00 0.00 50 1016.3
20200331124939 46 78 0.0 2.0 0.00 0.00 0.00 51 1016.2
20200331123947 45 93 0.0 0.0 0.00 0.00 0.00 52 1016.0
20200331122954 45 60 0.0 0.0 0.00 0.00 0.00 52 1016.2
20200331121934 46 67 0.0 0.0 0.00 0.00 0.00 51 1016.4
20200331120938 46 104 0.0 3.0 0.00 0.00 0.00 50 1016.1
20200331120001 46 72 0.0 0.0 0.00 0.00 0.00 50 1016.4
20200331115021 46 87 0.0 2.0 0.00 0.00 0.00 50 1016.4
20200331113958 46 81 0.0 3.0 0.00 0.00 0.00 51 1016.3
20200331112946 46 104 0.0 0.0 0.00 0.00 0.00 51 1016.3
20200331111934 46 79 0.0 0.0 0.00 0.00 0.00 51 1016.5
20200331110904 46 102 0.0 0.0 0.00 0.00 0.00 51 1016.6
20200331105849 46 135 0.0 0.0 0.00 0.00 0.00 51 1016.5
20200331104858 46 78 0.0 0.0 0.00 0.00 0.00 51 1016.6
20200331103823 46 89 0.0 0.0 0.00 0.00 0.00 51 1016.6
20200331102839 46 94 0.0 0.0 0.00 0.00 0.00 50 1016.8
20200331101852 47 80 0.0 0.0 0.00 0.00 0.00 50 1017.0
20200331100900 46 61 0.0 0.0 0.00 0.00 0.00 50 1017.1
20200331095834 46 64 0.0 0.0 0.00 0.00 0.00 49 1017.3
20200331094821 47 77 0.0 0.0 0.00 0.00 0.00 49 1017.6
20200331093843 46 72 0.0 0.0 0.00 0.00 0.00 50 1017.7
20200331092902 47 103 0.0 0.0 0.00 0.00 0.00 49 1017.6